Simultaneous Nadir Overpasses (SNOs) Predictions

Prediction of SNOs between FY3D and LANDSAT-8 Satellite Orbit:

Table of predicted SNOs for the next 14.0 days since TLE Epoch: 9/2/2023
Index Date (FY3D) Time (FY3D) Lat,Lon (FY3D) SZA (FY3D ) Date (LANDSAT-8) Time (LANDSAT-8) Lat,Lon (LANDSAT-8) SZA (LANDSAT-8 ) Distance(km) Time Diff (sec)
1 09/04/2023 07:46:16 73.32, 65.05 66.00 09/04/2023 07:46:49 73.32, 65.04 66.01 0.60 33
2 09/04/2023 08:36:59 -73.23,-127.44 114.07 09/04/2023 08:36:18 -73.25,-127.47 114.06 2.21 41
3 09/06/2023 23:13:20 -73.31, 13.33 113.02 09/06/2023 23:13:50 -73.34, 13.33 113.00 2.90 30
4 09/07/2023 00:04:05 73.24,-179.19 66.92 09/07/2023 00:03:17 73.25,-179.21 66.93 1.89 48
5 09/09/2023 14:40:27 73.33, -38.45 68.00 09/09/2023 14:40:50 73.32, -38.47 67.98 1.92 23
6 09/09/2023 15:31:10 -73.24, 129.08 112.09 09/09/2023 15:30:19 -73.25, 129.03 112.08 2.39 51
7 09/12/2023 06:07:32 -73.33, -90.18 111.00 09/12/2023 06:07:51 -73.35, -90.16 110.99 1.78 19
8 09/12/2023 06:58:17 73.27, 77.27 68.95 09/12/2023 06:57:18 73.25, 77.29 68.93 1.78 59
9 09/14/2023 20:44:06 -74.02, 49.11 109.32 09/14/2023 20:45:13 -73.94, 51.73 109.37 81.06 67
10 09/14/2023 21:34:38 73.33,-141.91 70.01 09/14/2023 21:34:50 73.32,-141.95 70.01 1.36 12



Historial Predications of SNOs between FY3D and LANDSAT-8
